DL9GKJ-13 Weather Reports


Display with metric or nautical units.
time (UTC)temp
F
wind
direction
speed
MPH
gust
MPH
rain 1hr
in
rain 24hr
in
rain mn
in
humidity
%
barometer
mb
20260507093604 54 20 4.0 17.0 0.00 0.00 0.00 74 985.8
20260507092804 54 26 6.0 17.0 0.00 0.00 0.00 74 985.6
20260507092404 54 40 6.0 17.0 0.00 0.00 0.00 74 985.6
20260507092006 54 49 7.0 18.0 0.00 0.00 0.00 73 985.6
20260507091203 54 22 3.0 18.0 0.00 0.00 0.00 74 985.6
20260507090804 53 18 4.0 19.0 0.00 0.00 0.00 74 985.5
20260507090404 53 25 9.0 19.0 0.00 0.00 0.00 74 985.6
20260507085206 53 58 7.0 14.0 0.00 0.00 0.00 74 985.5
20260507084804 53 35 7.0 14.0 0.00 0.00 0.00 75 985.4
20260507084404 53 23 1.0 14.0 0.00 0.00 0.00 77 985.3
20260507084006 53 33 7.0 23.0 0.00 0.00 0.00 75 985.4
20260507083604 53 37 7.0 23.0 0.00 0.00 0.00 76 985.4
20260507083204 53 53 3.0 15.0 0.00 0.00 0.00 75 985.3
20260507082803 53 62 4.0 18.0 0.00 0.00 0.00 77 985.3
20260507081206 53 27 7.0 14.0 0.00 0.00 0.00 75 985.2
20260507080804 52 26 4.0 14.0 0.00 0.00 0.00 76 985.2
20260507080404 52 20 7.0 14.0 0.00 0.00 0.00 74 985.1
20260507080004 52 24 6.0 12.0 0.00 0.00 0.00 75 985.1
20260507075606 52 23 6.0 14.0 0.00 0.00 0.00 75 985.1
20260507075204 51 26 1.0 14.0 0.00 0.00 0.00 76 984.9
20260507074806 51 39 6.0 14.0 0.00 0.00 0.00 76 985.0
20260507074404 50 64 3.0 19.0 0.00 0.00 0.00 76 985.0
20260507074004 50 52 4.0 19.0 0.00 0.00 0.00 78 985.1
20260507073604 49 30 3.0 19.0 0.00 0.00 0.00 79 984.9
20260507073204 49 16 4.0 17.0 0.00 0.00 0.00 78 985.0
20260507072804 49 25 7.0 18.0 0.00 0.00 0.00 80 984.8
20260507072404 49 40 6.0 18.0 0.00 0.00 0.00 79 984.8
20260507072004 49 41 4.0 18.0 0.00 0.00 0.00 79 984.8
20260507071604 49 60 7.0 18.0 0.00 0.00 0.00 79 984.7
20260507071204 49 56 7.0 18.0 0.00 0.00 0.00 80 984.9
20260507070804 49 45 6.0 19.0 0.00 0.00 0.00 79 984.9
20260507070406 49 38 7.0 19.0 0.00 0.00 0.00 81 984.7
20260507070009 49 40 9.0 12.0 0.00 0.00 0.00 81 984.8
20260507065204 49 21 3.0 11.0 0.00 0.00 0.00 81 984.7
20260507064804 49 47 4.0 14.0 0.00 0.00 0.00 81 984.6
20260507064404 49 40 6.0 19.0 0.00 0.00 0.00 82 984.6
20260507064004 48 30 7.0 19.0 0.00 0.00 0.00 83 984.6
20260507063604 48 40 6.0 12.0 0.00 0.00 0.00 84 984.7
20260507062404 46 26 3.0 10.0 0.00 0.00 0.00 86 984.5
20260507062004 46 39 3.0 10.0 0.00 0.00 0.00 87 984.3
20260507061203 45 32 3.0 12.0 0.00 0.00 0.00 90 984.4
20260507060806 45 15 4.0 12.0 0.00 0.00 0.00 90 984.3
20260507060404 45 22 1.0 10.0 0.00 0.00 0.00 90 984.3
20260507060004 45 33 1.0 10.0 0.00 0.00 0.00 90 984.4
20260507055604 45 53 4.0 10.0 0.00 0.00 0.00 90 984.2
20260507055204 45 42 3.0 11.0 0.00 0.00 0.00 90 984.1
20260507054404 45 37 6.0 11.0 0.00 0.00 0.00 90 984.0
20260507054004 45 52 0.0 14.0 0.00 0.00 0.00 90 984.0
20260507053606 45 45 3.0 14.0 0.00 0.00 0.00 90 984.0
20260507053204 45 32 3.0 14.0 0.00 0.00 0.00 90 983.9
20260507052407 45 23 1.0 11.0 0.00 0.00 0.00 91 983.8
20260507052003 45 42 6.0 12.0 0.00 0.00 0.00 91 983.9
20260507051604 45 39 3.0 12.0 0.00 0.00 0.00 91 983.9
20260507051206 44 54 4.0 11.0 0.00 0.00 0.00 91 983.7
20260507050804 44 70 6.0 11.0 0.00 0.00 0.00 91 983.8
20260507050404 44 74 4.0 11.0 0.00 0.00 0.00 92 983.5
20260507050005 44 46 1.0 11.0 0.00 0.00 0.00 92 983.5
20260507045606 44 27 1.0 10.0 0.00 0.00 0.00 92 983.5
20260507044804 44 29 4.0 10.0 0.00 0.00 0.00 92 983.4
20260507043604 44 54 1.0 15.0 0.00 0.00 0.00 93 983.3
20260507043204 44 57 3.0 15.0 0.00 0.00 0.00 92 983.1
20260507042804 44 41 7.0 15.0 0.00 0.00 0.00 93 983.2
20260507042404 44 51 1.0 10.0 0.00 0.00 0.00 93 983.1
20260507042004 44 41 4.0 10.0 0.00 0.00 0.00 93 983.0
20260507041604 44 51 1.0 8.0 0.00 0.00 0.00 93 983.2
20260507041203 44 67 0.0 12.0 0.00 0.00 0.00 93 983.2
20260507040806 44 81 1.0 12.0 0.00 0.00 0.00 93 983.0
20260507040404 44 86 4.0 14.0 0.00 0.00 0.00 93 983.1
20260507035204 44 51 1.0 11.0 0.00 0.00 0.00 94 982.9
20260507034804 44 45 4.0 11.0 0.00 0.00 0.00 94 982.9
20260507034404 44 18 0.0 12.0 0.00 0.00 0.00 94 982.9
20260507034004 44 14 4.0 12.0 0.00 0.00 0.00 94 982.9
20260507033607 44 21 4.0 17.0 0.00 0.00 0.00 94 982.9
20260507033204 44 29 3.0 17.0 0.00 0.00 0.00 94 982.9
20260507032804 44 36 1.0 14.0 0.00 0.00 0.00 94 982.8
20260507032404 44 41 3.0 14.0 0.00 0.00 0.00 94 982.9
20260507032005 44 36 3.0 21.0 0.00 0.00 0.00 94 982.9
20260507031604 44 37 6.0 21.0 0.00 0.00 0.00 94 982.9
20260507031204 44 64 3.0 21.0 0.00 0.00 0.00 95 982.7
20260507030805 44 57 3.0 14.0 0.00 0.00 0.00 95 982.7
20260507030404 44 33 4.0 14.0 0.00 0.00 0.00 95 982.6
20260507025604 44 10 3.0 11.0 0.00 0.00 0.00 95 982.6
20260507025206 44 26 4.0 14.0 0.00 0.00 0.00 95 982.7
20260507024804 44 32 6.0 18.0 0.00 0.00 0.00 95 982.7
20260507024404 44 27 6.0 18.0 0.00 0.00 0.00 95 982.4
20260507023604 44 16 4.0 18.0 0.00 0.00 0.00 95 982.5
20260507023203 44 36 0.0 11.0 0.00 0.00 0.00 96 982.3
20260507022807 44 46 4.0 11.0 0.00 0.00 0.00 96 982.4
20260507022404 44 37 4.0 11.0 0.00 0.00 0.00 96 982.4
20260507022004 44 39 6.0 10.0 0.00 0.00 0.00 96 982.6
20260507021604 44 38 4.0 10.0 0.00 0.00 0.00 96 982.5
20260507021206 44 46 0.0 12.0 0.00 0.00 0.00 96 982.4
20260507020804 44 37 3.0 12.0 0.00 0.00 0.00 96 982.4
20260507020404 44 26 1.0 12.0 0.00 0.00 0.00 96 982.4
20260507015603 44 35 3.0 10.0 0.00 0.00 0.00 96 982.4
20260507015204 44 62 3.0 10.0 0.00 0.00 0.00 96 982.2
20260507014804 44 58 4.0 10.0 0.00 0.00 0.00 96 982.2
20260507014403 44 33 3.0 8.0 0.00 0.00 0.00 96 982.2
20260507014004 44 21 1.0 8.0 0.00 0.00 0.00 96 982.2
20260507013604 44 24 3.0 11.0 0.00 0.00 0.00 96 982.2
20260507013204 44 10 3.0 11.0 0.00 0.00 0.00 96 982.2
20260507012806 44 6 7.0 11.0 0.00 0.00 0.00 96 982.1
20260507012004 44 45 3.0 15.0 0.00 0.00 0.00 96 981.9
20260507011604 44 38 6.0 15.0 0.00 0.00 0.00 95 982.1
20260507011203 44 27 1.0 17.0 0.00 0.00 0.00 95 982.0
20260507010004 44 13 3.0 11.0 0.00 0.00 0.00 95 982.1
20260507005603 44 13 0.0 11.0 0.00 0.00 0.00 95 982.2
20260507005204 44 12 3.0 8.0 0.00 0.00 0.00 95 982.2
20260507004806 44 19 1.0 12.0 0.00 0.00 0.00 95 982.1
20260507004403 44 32 3.0 12.0 0.00 0.00 0.00 95 982.1
20260507003207 44 37 1.0 14.0 0.00 0.00 0.00 95 982.2
20260507002804 44 24 4.0 14.0 0.00 0.00 0.00 95 982.1
20260507002404 44 25 1.0 14.0 0.00 0.00 0.00 95 982.1
20260507002008 44 22 3.0 14.0 0.00 0.00 0.00 95 982.0
20260507001604 44 9 7.0 14.0 0.00 0.00 0.00 95 982.1
20260507001203 44 3 7.0 12.0 0.00 0.00 0.00 95 982.2
20260507000804 44 1 4.0 10.0 0.00 0.00 0.00 96 982.0
20260507000405 44 13 4.0 10.0 0.00 0.00 0.00 96 982.0
20260507000005 44 25 3.0 10.0 0.00 0.00 0.00 96 982.0
20260506235604 44 29 3.0 10.0 0.00 0.00 0.00 96 981.9
20260506234804 44 56 3.0 11.0 0.00 0.00 0.00 95 981.9
20260506234404 44 62 4.0 12.0 0.00 0.00 0.00 95 981.9
20260506234006 44 60 1.0 12.0 0.00 0.00 0.00 95 982.1
20260506233204 44 56 3.0 11.0 0.00 0.00 0.00 96 981.9
20260506232806 44 35 0.0 10.0 0.00 0.00 0.00 96 981.9
20260506232403 44 35 1.0 10.0 0.00 0.00 0.00 96 981.9
20260506232004 44 44 3.0 10.0 0.00 0.00 0.00 96 981.8
20260506231604 44 51 4.0 10.0 0.00 0.00 0.00 96 981.9
20260506231206 44 28 3.0 10.0 0.00 0.00 0.00 96 981.9
20260506230804 44 26 1.0 8.0 0.00 0.00 0.00 96 981.9
20260506230004 44 38 1.0 15.0 0.00 0.00 0.00 95 981.8
20260506225604 45 43 0.0 15.0 0.00 0.00 0.00 95 981.8
20260506225206 45 66 4.0 15.0 0.00 0.00 0.00 95 981.6
20260506224803 45 53 1.0 15.0 0.00 0.00 0.00 95 981.6
20260506224404 45 51 1.0 15.0 0.00 0.00 0.00 94 981.5
20260506224006 45 48 6.0 15.0 0.00 0.00 0.00 94 981.6
20260506223204 45 43 4.0 12.0 0.00 0.00 0.00 94 981.4
20260506222806 45 29 1.0 8.0 0.00 0.00 0.00 94 981.4
20260506222404 45 18 1.0 8.0 0.00 0.00 0.00 94 981.4
20260506222004 45 21 0.0 10.0 0.00 0.00 0.00 94 981.5
20260506221206 46 25 4.0 14.0 0.00 0.00 0.00 93 981.4
20260506220804 46 31 1.0 14.0 0.00 0.00 0.00 93 981.4
20260506220404 46 44 3.0 8.0 0.00 0.00 0.00 93 981.3
20260506220005 46 64 1.0 11.0 0.00 0.00 0.00 93 981.3
20260506215604 46 56 3.0 12.0 0.00 0.00 0.00 92 981.3
20260506215204 46 58 4.0 14.0 0.00 0.00 0.00 92 981.3
20260506214804 46 65 3.0 14.0 0.00 0.00 0.00 92 981.2
20260506214404 46 48 7.0 14.0 0.00 0.00 0.00 92 981.3
20260506214006 46 30 0.0 12.0 0.00 0.00 0.00 92 981.4
20260506213604 46 41 6.0 14.0 0.00 0.00 0.00 92 981.2
20260506213203 46 51 7.0 14.0 0.00 0.00 0.00 92 981.2
20260506212404 46 54 4.0 22.0 0.00 0.00 0.00 92 981.3
20260506212003 46 39 6.0 22.0 0.00 0.00 0.00 91 981.3
20260506211604 46 52 6.0 15.0 0.00 0.00 0.00 91 981.3
20260506211204 46 71 6.0 14.0 0.00 0.00 0.00 92 981.2
20260506210803 46 73 4.0 12.0 0.00 0.00 0.00 92 981.1
20260506210004 46 38 3.0 12.0 0.00 0.00 0.00 92 981.1
20260506205604 47 56 4.0 14.0 0.00 0.00 0.00 92 981.0
20260506204806 47 39 7.0 15.0 0.00 0.00 0.00 92 981.0
20260506204404 47 41 6.0 18.0 0.00 0.00 0.00 92 981.1
20260506204004 47 61 4.0 18.0 0.00 0.00 0.00 92 981.1
20260506203606 47 60 6.0 18.0 0.00 0.00 0.00 92 981.0
20260506203204 47 40 7.0 18.0 0.00 0.00 0.00 92 981.1
20260506202406 47 38 4.0 19.0 0.00 0.00 0.00 92 981.1
20260506202003 47 49 3.0 18.0 0.00 0.00 0.00 92 981.2
20260506201607 47 53 4.0 18.0 0.00 0.00 0.00 92 981.1
20260506201204 47 69 7.0 18.0 0.00 0.00 0.00 92 981.0
20260506200803 47 67 6.0 14.0 0.00 0.00 0.00 92 981.0
20260506200004 47 39 3.0 17.0 0.00 0.00 0.00 92 980.8
20260506195604 47 45 3.0 17.0 0.00 0.00 0.00 92 980.8
20260506195204 47 43 7.0 17.0 0.00 0.00 0.00 92 980.6
20260506194807 47 51 4.0 14.0 0.00 0.00 0.00 92 980.4
20260506194404 47 29 4.0 21.0 0.00 0.00 0.00 92 980.5
20260506194004 47 36 3.0 21.0 0.00 0.00 0.00 91 980.6
20260506192804 47 27 6.0 22.0 0.00 0.00 0.00 91 980.7
20260506192404 47 51 10.0 22.0 0.00 0.00 0.00 91 980.6
20260506192004 48 51 4.0 21.0 0.00 0.00 0.00 92 980.7
20260506191605 48 30 6.0 18.0 0.00 0.00 0.00 92 980.6
20260506191204 48 9 4.0 19.0 0.00 0.00 0.00 92 980.6
20260506190804 48 22 7.0 19.0 0.00 0.00 0.00 92 980.6
20260506190405 48 22 3.0 19.0 0.00 0.00 0.00 92 980.5
20260506190005 48 35 6.0 15.0 0.00 0.00 0.00 92 980.5
20260506185604 48 44 7.0 15.0 0.00 0.00 0.00 92 980.4
20260506184404 48 49 6.0 23.0 0.00 0.00 0.00 92 980.2
20260506183604 49 41 6.0 22.0 0.00 0.00 0.00 92 979.9
20260506183204 49 35 4.0 21.0 0.00 0.00 0.00 92 979.9
20260506182804 49 27 10.0 21.0 0.00 0.00 0.00 92 980.1
20260506182404 49 23 9.0 17.0 0.00 0.00 0.00 92 979.9
20260506182006 49 28 4.0 18.0 0.00 0.00 0.00 92 979.9
20260506181603 49 51 3.0 18.0 0.00 0.00 0.00 92 979.7
20260506180806 50 59 9.0 17.0 0.00 0.00 0.00 91 979.8
20260506180404 50 53 3.0 17.0 0.00 0.00 0.00 92 979.7
20260506180005 50 46 4.0 18.0 0.00 0.00 0.00 91 979.7
20260506175604 50 53 10.0 18.0 0.00 0.00 0.00 91 979.7
20260506174804 50 45 3.0 18.0 0.00 0.00 0.00 90 979.5
20260506174404 50 29 6.0 23.0 0.00 0.00 0.00 90 979.5
20260506173603 51 24 7.0 23.0 0.00 0.00 0.00 89 979.7
20260506173204 51 36 6.0 18.0 0.00 0.00 0.00 88 979.6
20260506172404 51 36 6.0 25.0 0.00 0.00 0.00 87 979.3
20260506172004 51 37 10.0 25.0 0.00 0.00 0.00 87 979.3
20260506171204 51 21 6.0 14.0 0.00 0.00 0.00 88 979.3
20260506170804 51 15 4.0 15.0 0.00 0.00 0.00 88 979.2
20260506170404 51 25 4.0 15.0 0.00 0.00 0.00 87 979.1
20260506170004 51 28 3.0 15.0 0.00 0.00 0.00 87 979.2
20260506165604 51 18 3.0 15.0 0.00 0.00 0.00 87 979.1
20260506165204 51 1 4.0 7.0 0.00 0.00 0.00 88 979.1
20260506164806 51 6 4.0 7.0 0.00 0.00 0.00 88 979.2
20260506164404 51 15 4.0 12.0 0.00 0.00 0.00 88 979.1
20260506164004 51 23 0.0 12.0 0.00 0.00 0.00 88 979.2
20260506163606 51 12 3.0 17.0 0.00 0.00 0.00 88 979.1
20260506163203 51 17 6.0 17.0 0.00 0.00 0.00 89 979.1
20260506162804 51 24 6.0 17.0 0.00 0.00 0.00 89 979.1
20260506162404 51 38 6.0 22.0 0.00 0.00 0.00 89 979.2
20260506161606 51 24 4.0 19.0 0.00 0.00 0.00 89 979.1
20260506161204 52 16 6.0 19.0 0.00 0.00 0.00 90 979.1
20260506160403 52 17 10.0 19.0 0.00 0.00 0.00 89 979.0
20260506160004 52 25 6.0 21.0 0.00 0.00 0.00 90 978.9
20260506155604 52 6 4.0 21.0 0.00 0.00 0.00 90 978.9
20260506155204 52 19 6.0 21.0 0.00 0.00 0.00 90 979.1
20260506154806 52 20 7.0 21.0 0.00 0.00 0.00 90 978.9
20260506154404 52 43 10.0 21.0 0.00 0.00 0.00 89 979.1
20260506154004 52 37 7.0 15.0 0.00 0.00 0.00 89 979.0
20260506153604 52 32 4.0 15.0 0.00 0.00 0.00 89 979.1
20260506153204 52 16 3.0 22.0 0.00 0.00 0.00 90 979.0
20260506152804 52 21 9.0 22.0 0.00 0.00 0.00 89 979.0
20260506152404 52 28 4.0 22.0 0.00 0.00 0.00 89 979.1
20260506152006 52 26 4.0 15.0 0.00 0.00 0.00 89 979.1
20260506151204 53 46 4.0 15.0 0.00 0.00 0.00 89 979.1
20260506150806 52 25 4.0 11.0 0.00 0.00 0.00 89 979.2
20260506150403 52 18 4.0 12.0 0.00 0.00 0.00 89 979.2
20260506150004 52 15 3.0 17.0 0.00 0.00 0.00 89 979.2
20260506145604 52 6 6.0 17.0 0.00 0.00 0.00 89 979.2
20260506145206 52 6 4.0 17.0 0.00 0.00 0.00 88 979.2
20260506144804 52 2 9.0 17.0 0.00 0.00 0.00 88 979.2
20260506144404 52 10 6.0 17.0 0.00 0.00 0.00 88 979.0
20260506144006 52 9 4.0 18.0 0.00 0.00 0.00 88 979.1
20260506143604 53 9 6.0 19.0 0.00 0.00 0.00 88 979.2
20260506143204 53 9 9.0 19.0 0.00 0.00 0.00 89 979.0
20260506142804 53 11 7.0 12.0 0.00 0.00 0.00 87 979.1
20260506142404 53 3 4.0 17.0 0.00 0.00 0.00 87 979.2
20260506142004 53 9 4.0 17.0 0.00 0.00 0.00 87 979.1
20260506141204 53 12 7.0 17.0 0.00 0.00 0.00 87 979.2
20260506140804 53 8 6.0 15.0 0.00 0.00 0.00 87 979.1
20260506140404 53 42 6.0 17.0 0.00 0.00 0.00 87 979.1
20260506140004 53 46 6.0 17.0 0.00 0.00 0.00 87 979.2
20260506135607 53 46 7.0 15.0 0.00 0.00 0.00 87 979.1
20260506135204 53 41 4.0 12.0 0.00 0.00 0.00 87 979.2
20260506134806 53 48 1.0 17.0 0.00 0.00 0.00 86 979.0
20260506134404 53 33 1.0 17.0 0.00 0.00 0.00 86 979.1
20260506134006 53 40 9.0 18.0 0.00 0.00 0.00 87 979.1
20260506132404 53 46 3.0 19.0 0.00 0.00 0.00 86 979.0
20260506132006 53 18 3.0 22.0 0.00 0.00 0.00 85 979.0
20260506131603 53 5 9.0 22.0 0.00 0.00 0.00 85 979.0
20260506131204 53 5 6.0 18.0 0.00 0.00 0.00 85 979.0
20260506130406 53 24 3.0 21.0 0.00 0.00 0.00 85 978.9
20260506130005 53 52 7.0 21.0 0.00 0.00 0.00 85 979.0
20260506125604 53 54 10.0 17.0 0.00 0.00 0.00 84 978.9
20260506125204 54 50 7.0 18.0 0.00 0.00 0.00 84 978.9
20260506124806 54 33 3.0 18.0 0.00 0.00 0.00 85 978.9
20260506124404 53 26 9.0 18.0 0.00 0.00 0.00 84 978.7
20260506124004 53 9 9.0 15.0 0.00 0.00 0.00 84 978.7
20260506123204 53 15 6.0 12.0 0.00 0.00 0.00 85 978.6
20260506122803 53 15 3.0 14.0 0.00 0.00 0.00 85 978.7
20260506122004 53 22 6.0 14.0 0.00 0.00 0.00 85 978.7
20260506121604 53 20 6.0 18.0 0.00 0.00 0.00 85 978.7
20260506121204 53 12 3.0 25.0 0.00 0.00 0.00 86 978.7
20260506120804 53 16 6.0 25.0 0.00 0.00 0.00 85 978.7
20260506120404 53 14 10.0 25.0 0.00 0.00 0.00 85 978.6
20260506115604 53 11 7.0 14.0 0.00 0.00 0.00 85 978.5
20260506115204 53 11 6.0 17.0 0.00 0.00 0.00 85 978.4
20260506114804 53 10 4.0 17.0 0.00 0.00 0.00 85 978.5
20260506114404 53 12 11.0 17.0 0.00 0.00 0.00 85 978.5
20260506114005 53 26 6.0 15.0 0.00 0.00 0.00 84 978.4
20260506113604 53 25 7.0 15.0 0.00 0.00 0.00 84 978.4
20260506113204 54 17 3.0 15.0 0.00 0.00 0.00 84 978.4
20260506112804 54 15 7.0 15.0 0.00 0.00 0.00 83 978.4
20260506112404 54 29 7.0 15.0 0.00 0.00 0.00 83 978.5
20260506112004 54 26 4.0 11.0 0.00 0.00 0.00 81 978.5
20260506111604 54 18 3.0 10.0 0.00 0.00 0.00 82 978.5
20260506111204 54 7 4.0 10.0 0.00 0.00 0.00 83 978.4
20260506110404 53 34 4.0 14.0 0.00 0.00 0.00 83 978.3
20260506104803 53 24 3.0 18.0 0.00 0.00 0.00 85 978.5
20260506104404 53 30 6.0 18.0 0.00 0.00 0.00 84 978.4
20260506104004 52 19 6.0 14.0 0.00 0.00 0.00 84 978.4
20260506103603 52 17 3.0 14.0 0.00 0.00 0.00 84 978.5
20260506103204 52 19 3.0 12.0 0.00 0.00 0.00 84 978.4
20260506102006 52 22 6.0 17.0 0.00 0.00 0.00 81 978.4
20260506101604 52 21 4.0 12.0 0.00 0.00 0.00 80 978.4
20260506101204 51 34 6.0 27.0 0.00 0.00 0.00 80 978.4
20260506100404 51 35 7.0 21.0 0.00 0.00 0.00 81 978.4
20260506095604 51 43 4.0 17.0 0.00 0.00 0.00 82 978.5
20260506095206 51 46 6.0 17.0 0.00 0.00 0.00 83 978.4
20260506094804 51 64 1.0 17.0 0.00 0.00 0.00 83 978.6
20260506094404 51 54 7.0 12.0 0.00 0.00 0.00 82 978.5
20260506094004 51 70 3.0 14.0 0.00 0.00 0.00 83 978.4